Powrót do katalogu

STARLINK-2659

AktywnyŁącznośćVLEO
NORAD 48467·PAYLOAD·🇺🇸 United States

Wystrzelony May 9, 2021 z Cape Canaveral Space Force Station

Loading…

Następne Przeloty (najbliższe 24 godziny)

TLE

ŚwieżeSource: CelesTrak SupGP

Epoka: Sep 14, 2026, 21:14 UTC

1 48467C 21040AR  26257.88520833  .00030416  00000+0  97771-3 0  2579
2 48467  53.1599  30.5233 0001143  84.2969  83.8883 15.31700029    13

Śledź STARLINK-2659 w czasie rzeczywistym z AllMySat

Download on the App Store